EW9943 Weather Reports


time (UTC)temp
C
wind
direction
speed
KPH
gust
KPH
rain 1hr
cm
rain 24hr
cm
rain mn
cm
humidity
%
barometer
mb
20260507124547 10 346 0.0 3.2 0.00 1.07 0.23 87 1004.3
20260507123030 9 336 4.8 9.7 0.00 1.07 0.23 83 1004.0
20260507121524 8 326 4.8 8.0 0.00 1.07 0.23 85 1004.2
20260507120023 8 328 3.2 8.0 0.00 1.07 0.23 86 1003.9
20260507114519 8 325 1.6 4.8 0.00 1.07 0.23 90 1004.1
20260507113019 8 360 0.0 3.2 0.00 1.07 0.23 89 1004.0
20260507111518 8 360 0.0 3.2 0.00 1.07 0.23 90 1004.3
20260507110027 7 360 0.0 3.2 0.00 1.07 0.23 90 1004.4
20260507104515 7 298 0.0 3.2 0.00 1.07 0.23 90 1004.6
20260507103013 7 304 1.6 3.2 0.00 1.07 0.23 90 1004.8
20260507101512 7 339 0.0 3.2 0.00 1.07 0.23 91 1004.0
20260507100018 7 315 0.0 4.8 0.00 1.07 0.23 91 1004.1
20260507094509 7 327 4.8 9.7 0.00 1.07 0.23 91 1003.7
20260507093009 7 355 4.8 12.9 0.00 1.07 0.23 91 1003.3
20260507091507 8 360 4.8 8.0 0.00 1.07 0.23 92 1003.7
20260507090007 8 355 1.6 8.0 0.00 1.07 0.23 92 1003.8
20260507084508 8 336 3.2 9.7 0.00 1.07 0.23 92 1003.6
20260507083003 8 355 1.6 8.0 0.00 1.07 0.23 93 1003.5
20260507081505 8 351 0.0 6.4 0.00 1.07 0.23 93 1003.4
20260507080001 8 328 3.2 14.5 0.00 1.07 0.23 93 1003.4
20260507074615 8 334 3.2 9.7 0.00 1.07 0.23 94 1003.4
20260507073059 8 355 1.6 6.4 0.00 1.07 0.23 93 1003.0
20260507071556 8 345 1.6 4.8 0.00 1.07 0.23 94 1002.7
20260507070106 8 327 0.0 4.8 0.00 1.07 0.23 94 1002.3
20260507064604 8 338 3.2 6.4 0.03 1.07 0.23 94 1002.3
20260507063058 9 346 4.8 16.1 0.03 1.07 0.23 94 1002.5
20260507061552 9 360 4.8 19.3 0.03 1.07 0.23 94 1002.3
20260507060057 9 342 3.2 8.0 0.03 1.07 0.23 95 1002.0
20260507054554 9 310 0.0 4.8 0.03 1.04 0.20 94 1002.3
20260507053050 10 339 0.0 6.4 0.05 1.04 0.20 95 1002.2
20260507051547 9 336 0.0 6.4 0.18 1.04 0.20 95 1002.3
20260507050043 8 273 0.0 4.8 0.20 1.04 0.20 94 1002.1
20260507044543 8 282 29.0 32.2 0.18 1.02 0.18 94 1002.0
20260507043040 8 266 29.0 32.2 0.15 0.99 0.15 94 1001.8
20260507041535 8 259 16.1 20.9 0.03 0.86 0.03 94 1001.6
20260507040034 8 260 16.1 20.9 0.00 0.84 0.00 94 1001.8
20260507034537 8 261 17.7 22.5 0.00 0.84 0.84 94 1001.7
20260507033032 8 252 19.3 24.1 0.00 0.84 0.84 94 1001.8
20260507031531 8 242 22.5 30.6 0.00 0.84 0.84 94 1001.9
20260507030031 8 229 24.1 33.8 0.00 0.84 0.84 94 1001.9
20260507024528 8 239 24.1 32.2 0.00 0.84 0.84 94 1002.0
20260507023027 8 231 22.5 32.2 0.00 0.84 0.84 94 1002.3
20260507021526 8 227 25.7 35.4 0.00 0.84 0.84 94 1002.4
20260507020035 8 225 25.7 40.2 0.00 0.84 0.84 94 1002.6
20260507014523 8 216 25.7 37.0 0.03 0.84 0.84 94 1002.7
20260507013039 8 224 24.1 35.4 0.05 0.84 0.84 93 1002.8
20260507011520 8 224 24.1 35.4 0.08 0.84 0.84 93 1003.0
20260507010019 8 183 20.9 32.2 0.08 0.81 0.81 93 1003.0
20260507004517 8 230 19.3 32.2 0.05 0.79 0.79 93 1003.2
20260507003016 9 234 22.5 35.4 0.08 0.79 0.79 93 1003.4
20260507001516 8 213 16.1 33.8 0.08 0.76 0.76 93 1003.4
20260507000018 9 208 19.3 38.6 0.10 0.71 0.71 93 1003.3
20260506234520 9 235 16.1 30.6 0.15 0.71 0.71 93 1003.5
20260506233014 9 223 16.1 38.6 0.18 0.71 0.71 93 1003.7
20260506231511 9 221 17.7 40.2 0.23 0.69 0.69 93 1003.7
20260506230010 9 213 22.5 33.8 0.30 0.64 0.64 92 1003.8
20260506224510 9 227 20.9 33.8 0.33 0.58 0.58 92 1003.8
20260506223007 9 169 27.4 37.0 0.36 0.53 0.53 92 1004.1
20260506221507 9 223 24.1 35.4 0.33 0.46 0.46 92 1004.2
20260506220007 9 217 25.7 43.5 0.23 0.33 0.33 91 1004.4
20260506214502 9 213 25.7 33.8 0.18 0.25 0.25 91 1004.6
20260506213002 10 228 27.4 37.0 0.10 0.18 0.18 90 1004.7
20260506211610 10 230 27.4 37.0 0.08 0.13 0.13 90 1004.7
20260506210100 10 217 25.7 37.0 0.05 0.10 0.10 90 1004.6
20260506204600 10 210 27.4 35.4 0.05 0.08 0.08 90 1004.7
20260506203059 10 217 27.4 38.6 0.08 0.08 0.08 89 1004.9
20260506201558 10 221 29.0 37.0 0.05 0.05 0.05 89 1005.1
20260506200057 10 219 33.8 41.8 0.05 0.05 0.05 89 1005.0
20260506194557 10 219 27.4 38.6 0.03 0.03 0.03 88 1004.9
20260506193057 10 227 33.8 41.8 0.00 0.00 0.00 88 1005.0
20260506191556 10 215 27.4 37.0 0.00 0.00 0.00 88 1004.5
20260506190057 10 228 24.1 35.4 0.00 0.00 0.00 88 1004.7
20260506184553 10 229 29.0 41.8 0.00 0.00 0.00 88 1005.0
20260506183052 10 203 29.0 37.0 0.00 0.00 0.00 88 1005.2
20260506181550 10 229 25.7 40.2 0.00 0.00 0.00 88 1005.3
20260506180049 10 219 22.5 32.2 0.00 0.00 0.00 89 1005.6
20260506174549 10 219 22.5 40.2 0.00 0.00 0.00 89 1005.6
20260506173101 9 227 22.5 33.8 0.00 0.00 0.00 89 1005.7
20260506171551 9 215 19.3 30.6 0.00 0.00 0.00 89 1005.9
20260506170044 9 227 22.5 30.6 0.00 0.00 0.00 89 1006.2
20260506164554 9 227 22.5 30.6 0.00 0.00 0.00 90 1006.5
20260506163046 9 224 20.9 27.4 0.00 0.00 0.00 90 1006.7
20260506161544 9 228 19.3 25.7 0.00 0.00 0.00 90 1007.0
20260506160050 9 225 22.5 27.4 0.00 0.00 0.00 90 1007.2
20260506154550 9 224 22.5 30.6 0.00 0.00 0.00 90 1007.6
20260506153042 9 229 22.5 30.6 0.00 0.00 0.00 90 1007.2
20260506151542 9 236 22.5 30.6 0.00 0.00 0.00 90 1007.1
20260506150039 9 223 22.5 29.0 0.00 0.00 0.00 90 1007.0
20260506144537 9 238 24.1 29.0 0.00 0.00 0.00 90 1006.9
20260506143037 9 228 20.9 29.0 0.00 0.00 0.00 90 1007.2
20260506141537 9 231 20.9 27.4 0.00 0.00 0.00 91 1007.7
20260506140032 8 231 19.3 25.7 0.00 0.00 0.00 91 1007.6
20260506134532 8 254 16.1 22.5 0.00 0.00 0.00 91 1007.8
20260506133032 8 236 17.7 22.5 0.00 0.00 0.00 91 1007.6
20260506131535 8 264 11.3 17.7 0.00 0.00 0.00 91 1007.5
20260506130031 8 244 14.5 17.7 0.00 0.00 0.00 91 1007.3